Location: Im Fang
(46.6019°N, 7.2397°E)
Time: 15:36:16
(UTC+00:00)

SKYMED 2 - Pass Details

Date: 08 December 2019
Orbit: 621 x 623 km, 97.9° (Epoch: 19 January)

Event Time Altitude Azimuth Distance (km) Brightness Sun altitude
Rises 04:16:59 0° 154° (SSE) 2,893 7.4 -27.4°
Reaches altitude 10° 04:19:11 10° 150° (SSE) 1,991 6.6 -27.0°
Maximum altitude 04:23:25 56° 72° (ENE) 744 4.1 -26.2°
Enters shadow 04:24:20 46° 27° (NNE) 844 4.3 -26.1°
